Location: Unspecified
(50.0000°N, 15.0000°E)
Time: 04:50:03
(UTC+01:00)

ISS - Pass Details

Date: 05 December 2021
Orbit: 413 x 422 km, 51.6° (Epoch: 22 January)

Event Time Altitude Azimuth Distance (km) Brightness Sun altitude
Rises 18:40:32 0° 283° (WNW) 2,382 1.2 -24.9°
Reaches altitude 10° 18:43:08 10° 263° (W) 1,511 0.1 -25.3°
Maximum altitude 18:45:26 17° 220° (SW) 1,141 -1.1 -25.7°
Enters shadow 18:45:55 17° 210° (SSW) 1,157 -1.2 -25.7°
